H1 CPF 2 NER 2021 4 13 9 103 01 glonass131 H2 1301901 9131 39155 2021 4 13 0 0 0 2021 4 16 23 45 0 900 1 1 0 0 0 1 H9 10 0 59317 0.00000 0 -6345492.338 22933375.867 9157928.906 10 0 59317 900.00000 0 -6599605.061 23847074.557 6122473.345 10 0 59317 1800.00000 0 -6655821.134 24418879.034 2967827.744 10 0 59317 2700.00000 0 -6560232.132 24616743.977 -244635.907 10 0 59317 3600.00000 0 -6364661.758 24420767.587 -3452321.953 10 0 59317 4500.00000 0 -6124227.435 23824111.288 -6592643.887 10 0 59317 5400.00000 0 -5894761.726 22833386.816 -9604263.531 10 0 59317 6300.00000 0 -5730204.719 21468491.506 -12428310.492 10 0 59317 7200.00000 0 -5680080.451 19761896.796 -15009555.720 10 0 59317 8100.00000 0 -5787167.175 17757418.627 -17297513.936 10 0 59317 9000.00000 0 -6085463.154 15508521.108 -19247451.174 10 0 59317 9900.00000 0 -6598536.792 13076225.201 -20821275.768 10 0 59317 10800.00000 0 -7338333.202 10526711.358 -21988293.945 10 0 59317 11700.00000 0 -8304489.284 7928718.105 -22725814.357 10 0 59317 12600.00000 0 -9484187.087 5350847.306 -23019589.400 10 0 59317 13500.00000 0 -10852551.797 2858890.330 -22864084.929 10 0 59317 14400.00000 0 -12373577.032 513287.949 -22262573.911 10 0 59317 15300.00000 0 -14001537.346 -1633169.433 -21227053.312 10 0 59317 16200.00000 0 -15682827.103 -3537305.620 -19777987.387 10 0 59317 17100.00000 0 -17358146.815 -5167105.863 -17943884.048 10 0 59317 18000.00000 0 -18964943.547 -6502784.938 -15760714.388 10 0 59317 18900.00000 0 -20440001.683 -7537334.390 -13271188.479 10 0 59317 19800.00000 0 -21722074.493 -8276529.482 -10523903.189 10 0 59317 20700.00000 0 -22754445.802 -8738399.279 -7572380.180 10 0 59317 21600.00000 0 -23487314.676 -8952185.846 -4474014.012 10 0 59317 22500.00000 0 -23879904.032 -8956839.709 -1288951.654 10 0 59317 23400.00000 0 -23902206.221 -8799117.697 1921074.252 10 0 59317 24300.00000 0 -23536294.228 -8531365.321 5093935.713 10 0 59317 25200.00000 0 -22777145.509 -8209078.335 8168300.676 10 0 59317 26100.00000 0 -21632945.856 -7888346.464 11084803.026 10 0 59317 27000.00000 0 -20124862.131 -7623286.518 13787170.026 10 0 59317 27900.00000 0 -18286294.349 -7463571.790 16223287.131 10 0 59317 28800.00000 0 -16161638.660 -7452160.132 18346181.524 10 0 59317 29700.00000 0 -13804612.298 -7623314.506 20114907.505 10 0 59317 30600.00000 0 -11276208.883 -8000997.636 21495318.742 10 0 59317 31500.00000 0 -8642367.164 -8597707.016 22460714.268 10 0 59317 32400.00000 0 -5971447.422 -9413798.707 22992347.260 10 0 59317 33300.00000 0 -3331617.368 -10437328.680 23079787.720 10 0 59317 34200.00000 0 -788253.079 -11644419.612 22721132.276 10 0 59317 35100.00000 0 1598539.927 -13000139.906 21923056.676 10 0 59317 36000.00000 0 3776184.944 -14459860.922 20700708.761 10 0 59317 36900.00000 0 5701579.333 -15971038.733 19077442.262 10 0 59317 37800.00000 0 7342646.797 -17475349.000 17084394.273 10 0 59317 38700.00000 0 8679432.011 -18911088.513 14759912.014 10 0 59317 39600.00000 0 9704691.224 -20215744.947 12148837.358 10 0 59317 40500.00000 0 10423952.883 -21328628.492 9301660.540 10 0 59317 41400.00000 0 10855044.286 -22193455.209 6273557.312 10 0 59317 42300.00000 0 11027102.490 -22760772.792 3123326.866 10 0 59317 43200.00000 0 10979109.930 -22990124.998 -87749.698 10 0 59317 44100.00000 0 10758015.701 -22851861.044 -3297108.130 10 0 59317 45000.00000 0 10416521.809 -22328510.744 -6442132.862 10 0 59317 45900.00000 0 10010628.765 -21415664.161 -9461396.482 10 0 59317 46800.00000 0 9597045.920 -20122315.629 -12295880.771 10 0 59317 47700.00000 0 9230578.377 -18470655.067 -14890153.101 10 0 59317 48600.00000 0 8961603.776 -16495313.455 -17193472.898 10 0 59317 49500.00000 0 8833748.628 -14242093.116 -19160804.349 10 0 59317 50400.00000 0 8881865.243 -11766236.014 -20753713.526 10 0 59317 51300.00000 0 9130397.183 -9130303.304 -21941130.978 10 0 59317 52200.00000 0 9592204.128 -6401756.107 -22699963.948 10 0 59317 53100.00000 0 10267896.789 -3650340.404 -23015545.869 10 0 59317 54000.00000 0 11145710.223 -945386.840 -22881914.616 10 0 59317 54900.00000 0 12201920.435 1646860.463 -22301914.779 10 0 59317 55800.00000 0 13401785.548 4065773.731 -21287123.141 10 0 59317 56700.00000 0 14700970.376 6258624.418 -19857600.293 10 0 59317 57600.00000 0 16047392.588 8182524.653 -18041474.903 10 0 59317 58500.00000 0 17383410.934 9805947.808 -15874370.566 10 0 59317 59400.00000 0 18648261.809 11109767.152 -13398688.209 10 0 59317 60300.00000 0 19780640.458 12087772.330 -10662759.681 10 0 59317 61200.00000 0 20721317.459 12746645.534 -7719890.613 10 0 59317 62100.00000 0 21415680.420 13105402.167 -4627312.370 10 0 59317 63000.00000 0 21816094.509 13194323.073 -1445064.379 10 0 59317 63900.00000 0 21883983.691 13053426.370 1765170.857 10 0 59317 64800.00000 0 21591546.768 12730545.712 4941257.443 10 0 59317 65700.00000 0 20923037.923 12279097.592 8021797.817 10 0 59317 66600.00000 0 19875559.831 11755632.415 10947304.235 10 0 59317 67500.00000 0 18459337.664 11217272.407 13661328.725 10 0 59317 68400.00000 0 16697463.576 10719143.262 16111531.365 10 0 59317 69300.00000 0 14625122.854 10311906.091 18250668.145 10 0 59317 70200.00000 0 12288333.669 10039491.612 20037481.482 10 0 59317 71100.00000 0 9742251.800 9937129.867 21437478.281 10 0 59317 72000.00000 0 7049109.007 10029756.557 22423582.333 10 0 59317 72900.00000 0 4275868.176 10330861.719 22976649.984 10 0 59317 73800.00000 0 1491689.565 10841828.660 23085840.097 10 0 59317 74700.00000 0 -1234689.778 11551791.287 22748831.406 10 0 59317 75600.00000 0 -3837557.843 12438017.207 21971882.739 10 0 59317 76500.00000 0 -6256705.451 13466802.630 20769733.787 10 0 59317 77400.00000 0 -8439679.149 14594844.293 19165346.627 10 0 59317 78300.00000 0 -10343716.927 15771033.836 17189490.741 10 0 59317 79200.00000 0 -11937286.625 16938602.317 14880176.987 10 0 59317 80100.00000 0 -13201162.514 18037527.319 12281948.874 10 0 59317 81000.00000 0 -14128994.060 19007103.327 9445042.375 10 0 59317 81900.00000 0 -14727341.591 19788568.156 6424428.431 10 0 59317 82800.00000 0 -15015175.667 20327674.652 3278755.270 10 0 59317 83700.00000 0 -15022859.666 20577098.072 69210.276 10 0 59317 84600.00000 0 -14790657.297 20498575.449 -3141676.560 10 0 59317 85500.00000 0 -14366827.438 20064683.826 -6291263.440 10 0 59318 0.00000 0 -13805386.991 19260179.105 -9318036.439 10 0 59318 900.00000 0 -13163637.536 18082835.245 -12162832.280 10 0 59318 1800.00000 0 -12499561.619 16543746.682 -14770017.197 10 0 59318 2700.00000 0 -11869202.164 14667076.608 -17088597.573 10 0 59318 3600.00000 0 -11324137.319 12489262.078 -19073237.732 10 0 59318 4500.00000 0 -10909161.068 10057707.138 -20685163.158 10 0 59318 5400.00000 0 -10660269.627 7429019.369 -21892930.069 10 0 59318 6300.00000 0 -10603040.718 4666864.209 -22673045.295 10 0 59318 7200.00000 0 -10751475.325 1839528.207 -23010423.950 10 0 59318 8100.00000 0 -11107351.196 -982705.541 -22898676.169 10 0 59318 9000.00000 0 -11660114.989 -3730258.824 -22340218.007 10 0 59318 9900.00000 0 -12387316.486 -6336922.677 -21346205.477 10 0 59318 10800.00000 0 -13255564.876 -8742373.136 -19936294.493 10 0 59318 11700.00000 0 -14221964.817 -10894433.686 -18138233.063 10 0 59318 12600.00000 0 -15235969.573 -12750991.017 -15987295.514 10 0 59318 13500.00000 0 -16241571.113 -14281486.083 -13525571.567 10 0 59318 14400.00000 0 -17179733.181 -15467920.821 -10801125.786 10 0 59318 15300.00000 0 -17990963.576 -16305341.609 -7867045.362 10 0 59318 16200.00000 0 -18617916.642 -16801782.813 -4780395.992 10 0 59318 17100.00000 0 -19007916.403 -16977676.420 -1601107.072 10 0 59318 18000.00000 0 -19115294.698 -16864755.863 1609191.544 10 0 59318 18900.00000 0 -18903447.105 -16504503.016 4788358.556 10 0 59318 19800.00000 0 -18346521.687 -15946205.783 7874933.376 10 0 59318 20700.00000 0 -17430671.256 -15244709.214 10809309.084 10 0 59318 21600.00000 0 -16154818.161 -14457955.139 13534864.861 10 0 59318 22500.00000 0 -14530900.708 -13644413.222 15999037.672 10 0 59318 23400.00000 0 -12583591.582 -12860510.154 18154314.409 10 0 59318 24300.00000 0 -10349499.915 -12158163.174 19959127.460 10 0 59318 25200.00000 0 -7875889.364 -11582519.415 21378638.531 10 0 59318 26100.00000 0 -5218963.929 -11169993.864 22385397.412 10 0 59318 27000.00000 0 -2441790.342 -10946686.546 22959864.516 10 0 59318 27900.00000 0 388059.687 -10927244.120 23090788.117 10 0 59318 28800.00000 0 3201052.671 -11114213.288 22775429.287 10 0 59318 29700.00000 0 5928319.823 -11497913.599 22019629.864 10 0 59318 30600.00000 0 8504260.894 -12056836.375 20837721.041 10 0 59318 31500.00000 0 10869019.648 -12758555.073 19252272.625 10 0 59318 32400.00000 0 12970729.947 -13561111.472 17293685.604 10 0 59318 33300.00000 0 14767439.891 -14414822.192 14999633.306 10 0 59318 34200.00000 0 16228633.751 -15264432.197 12414359.398 10 0 59318 35100.00000 0 17336287.426 -16051526.743 9587843.778 10 0 59318 36000.00000 0 18085411.887 -16717101.481 6574850.421 10 0 59318 36900.00000 0 18484060.022 -17204182.714 3433874.135 10 0 59318 37800.00000 0 18552794.827 -17460386.506 226005.856 10 0 59318 38700.00000 0 18323639.793 -17440306.879 -2986261.584 10 0 59318 39600.00000 0 17838554.618 -17107629.670 -6140263.168 10 0 59318 40500.00000 0 17147500.282 -16436879.576 -9174401.575 10 0 59318 41400.00000 0 16306175.645 -15414723.184 -12029371.194 10 0 59318 42300.00000 0 15373522.439 -14040769.659 -14649340.015 10 0 59318 43200.00000 0 14409106.038 -12327832.335 -16983064.021 10 0 59318 44100.00000 0 13470485.046 -10301637.850 -18984910.057 10 0 59318 45000.00000 0 12610683.353 -7999993.576 -20615765.126 10 0 59318 45900.00000 0 11875873.831 -5471447.622 -21843812.878 10 0 59318 46800.00000 0 11303373.428 -2773497.736 -22645161.109 10 0 59318 47700.00000 0 10920035.602 29575.068 -23004307.562 10 0 59318 48600.00000 0 10741108.471 2869156.340 -22914435.145 10 0 59318 49500.00000 0 10769606.532 5674927.835 -22377531.446 10 0 59318 50400.00000 0 10996221.372 8377565.863 -21404331.347 10 0 59318 51300.00000 0 11399773.404 10911394.973 -20014085.319 10 0 59318 52200.00000 0 11948183.345 13216886.091 -18234159.560 10 0 59318 53100.00000 0 12599920.048 15242895.268 -16099477.620 10 0 59318 54000.00000 0 13305861.135 16948551.013 -13651816.153 10 0 59318 54900.00000 0 14011485.790 18304713.455 -10938970.256 10 0 59318 55800.00000 0 14659305.382 19294947.034 -8013806.196 10 0 59318 56700.00000 0 15191428.225 19915969.300 -4933221.260 10 0 59318 57600.00000 0 15552149.752 20177560.459 -1757031.869 10 0 59318 58500.00000 0 15690459.039 20101940.838 1453187.819 10 0 59318 59400.00000 0 15562356.787 19722645.470 4635294.168 10 0 59318 60300.00000 0 15132888.346 19082945.551 7727766.555 10 0 59318 61200.00000 0 14377807.736 18233884.728 10670881.733 10 0 59318 62100.00000 0 13284804.254 17232013.535 13407848.669 10 0 59318 63000.00000 0 11854241.441 16136917.012 15885883.615 10 0 59318 63900.00000 0 10099378.320 15008638.311 18057206.496 10 0 59318 64800.00000 0 8046063.827 13905104.795 19879941.535 10 0 59318 65700.00000 0 5731916.533 12879662.418 21318906.822 10 0 59318 66600.00000 0 3205022.497 11978819.494 22346279.429 10 0 59318 67500.00000 0 522203.217 11240292.212 22942124.798 10 0 59318 68400.00000 0 -2253077.204 10691431.988 23094781.215 10 0 59318 69300.00000 0 -5053081.965 10348099.454 22801092.281 10 0 59318 70200.00000 0 -7808353.600 10214031.901 22066482.599 10 0 59318 71100.00000 0 -10450345.564 10280731.229 20904874.136 10 0 59318 72000.00000 0 -12914026.851 10527878.489 19338443.231 10 0 59318 72900.00000 0 -15140353.631 10924259.555 17397220.703 10 0 59318 73800.00000 0 -17078506.449 11429165.451 15118540.273 10 0 59318 74700.00000 0 -18687800.059 11994210.873 12546343.339 10 0 59318 75600.00000 0 -19939185.776 12565496.526 9730351.062 10 0 59318 76500.00000 0 -20816282.255 13086025.706 6725117.628 10 0 59318 77400.00000 0 -21315889.698 13498273.960 3588981.537 10 0 59318 78300.00000 0 -21447963.939 13746803.047 382934.373 10 0 59318 79200.00000 0 -21235049.541 13780807.487 -2830571.066 10 0 59318 80100.00000 0 -20711194.241 13556483.871 -5988849.357 10 0 59318 81000.00000 0 -19920389.575 13039119.858 -9030222.460 10 0 59318 81900.00000 0 -18914603.325 12204811.143 -11895245.155 10 0 59318 82800.00000 0 -17751487.521 11041730.422 -14527889.590 10 0 59318 83700.00000 0 -16491860.191 9550891.517 -16876663.555 10 0 59318 84600.00000 0 -15197069.142 7746373.590 -18895638.338 10 0 59318 85500.00000 0 -13926351.367 5654994.020 -20545364.034 10 0 59319 0.00000 0 -12734301.756 3315442.434 -21793652.888 10 0 59319 900.00000 0 -11668560.140 776911.476 -22616214.445 10 0 59319 1800.00000 0 -10767814.833 -1902717.042 -22997129.413 10 0 59319 2700.00000 0 -10060209.148 -4659055.000 -22929153.352 10 0 59319 3600.00000 0 -9562216.023 -7423666.444 -22413844.857 10 0 59319 4500.00000 0 -9278028.650 -10126698.018 -21461516.734 10 0 59319 5400.00000 0 -9199490.360 -12699570.393 -20091012.679 10 0 59319 6300.00000 0 -9306564.609 -15077617.757 -18329315.410 10 0 59319 7200.00000 0 -9568322.520 -17202565.101 -16210995.729 10 0 59319 8100.00000 0 -9944403.480 -19024740.654 -13777515.058 10 0 59319 9000.00000 0 -10386884.500 -20504932.530 -11076396.703 10 0 59319 9900.00000 0 -10842477.085 -21615814.124 -8160283.640 10 0 59319 10800.00000 0 -11254957.099 -22342881.439 -5085902.378 10 0 59319 11700.00000 0 -11567723.910 -22684866.201 -1912954.035 10 0 59319 12600.00000 0 -11726380.397 -22653610.702 1297045.197 10 0 59319 13500.00000 0 -11681225.243 -22273412.695 4481951.562 10 0 59319 14400.00000 0 -11389553.262 -21579870.497 7580186.577 10 0 59319 15300.00000 0 -10817668.159 -20618278.738 10531912.792 10 0 59319 16200.00000 0 -9942524.441 -19441643.289 13280171.036 10 0 59319 17100.00000 0 -8752930.859 -18108398.872 15771958.830 10 0 59319 18000.00000 0 -7250265.966 -16679924.490 17959230.993 10 0 59319 18900.00000 0 -5448676.286 -15217959.361 19799805.261 10 0 59319 19800.00000 0 -3374748.530 -13782025.540 21258157.568 10 0 59319 20700.00000 0 -1066668.565 -12426962.782 22306093.455 10 0 59319 21600.00000 0 1427099.786 -11200676.297 22923284.299 10 0 59319 22500.00000 0 4049563.732 -10142189.347 23097659.008 10 0 59319 23400.00000 0 6737308.708 -9280080.440 22825644.039 10 0 59319 24300.00000 0 9422879.690 -8631369.396 22112246.798 10 0 59319 25200.00000 0 12037341.234 -8200898.679 20970979.813 10 0 59319 26100.00000 0 14512912.943 -7981236.526 19423625.464 10 0 59319 27000.00000 0 16785573.372 -7953107.225 17499843.664 10 0 59319 27900.00000 0 18797525.832 -8086332.384 15236627.496 10 0 59319 28800.00000 0 20499424.031 -8341245.762 12677614.752 10 0 59319 29700.00000 0 21852264.565 -8670524.217 9872266.178 10 0 59319 30600.00000 0 22828866.113 -9021359.316 6874924.135 10 0 59319 31500.00000 0 23414871.595 -9337879.063 3743768.420 10 0 59319 32400.00000 0 23609229.164 -9563717.620 539688.577 10 0 59319 33300.00000 0 23424129.567 -9644623.616 -2674905.569 10 0 59319 34200.00000 0 22884400.484 -9530994.995 -5837311.254 10 0 59319 35100.00000 0 22026381.870 -9180230.578 -8885772.830 10 0 59319 36000.00000 0 20896328.896 -8558795.714 -11760708.482 10 0 59319 36900.00000 0 19548409.888 -7643911.216 -14405897.388 10 0 59319 37800.00000 0 18042384.538 -6424790.811 -16769601.788 10 0 59319 38700.00000 0 16441061.794 -4903371.713 -18805599.798 10 0 59319 39600.00000 0 14807646.662 -3094505.064 -20474106.697 10 0 59319 40500.00000 0 13203089.832 -1025596.429 -21742565.130 10 0 59319 41400.00000 0 11683553.851 1264289.489 -22586287.766 10 0 59319 42300.00000 0 10298104.138 3725822.451 -22988939.315 10 0 59319 43200.00000 0 9086723.016 6301239.641 -22942848.658 10 0 59319 44100.00000 0 8078730.412 8926540.282 -22449145.596 10 0 59319 45000.00000 0 7291677.025 11533948.764 -21517720.637 10 0 59319 45900.00000 0 6730754.888 14054542.175 -20167010.044 10 0 59319 46800.00000 0 6388747.845 16420931.469 -18423611.980 10 0 59319 47700.00000 0 6246521.206 18569883.758 -16321743.026 10 0 59319 48600.00000 0 6274026.822 20444776.344 -13902547.502 10 0 59319 49500.00000 0 6431778.052 21997780.822 -11213274.719 10 0 59319 50400.00000 0 6672729.558 23191687.447 -8306341.812 10 0 59319 51300.00000 0 6944480.143 24001295.697 -5238301.694 10 0 59319 52200.00000 0 7191703.874 24414315.512 -2068737.152 10 0 59319 53100.00000 0 7358705.830 24431744.375 1140896.746 10 0 59319 54000.00000 0 7391994.303 24067707.430 4328459.309 10 0 59319 54900.00000 0 7242761.335 23348770.020 7432317.322 10 0 59319 55800.00000 0 6869168.010 22312753.654 10392522.115 10 0 59319 56700.00000 0 6238339.533 21007106.529 13151949.152 10 0 59319 57600.00000 0 5327987.590 19486897.469 15657379.749 10 0 59319 58500.00000 0 4127593.090 17812517.070 17860505.864 10 0 59319 59400.00000 0 2639100.499 16047181.110 19718840.707 10 0 59319 60300.00000 0 877094.837 14254338.779 21196519.703 10 0 59319 61200.00000 0 -1131546.635 12495091.733 22264978.208 10 0 59319 62100.00000 0 -3348514.973 10825729.154 22903494.521 10 0 59319 63000.00000 0 -5725408.802 9295479.155 23099588.790 10 0 59319 63900.00000 0 -8205499.325 7944568.227 22849270.515 10 0 59319 64800.00000 0 -10725851.129 6802668.058 22157129.641 10 0 59319 65700.00000 0 -13219714.073 5887793.659 21036268.488 10 0 59319 66600.00000 0 -15619090.120 5205698.794 19508074.216 10 0 59319 67500.00000 0 -17857371.232 4749794.653 17601834.056 10 0 59319 68400.00000 0 -19871940.635 4501596.500 15354198.223 10 0 59319 69300.00000 0 -21606630.226 4431681.335 12808498.281 10 0 59319 70200.00000 0 -23013931.736 4501118.193 10013931.638 10 0 59319 71100.00000 0 -24056868.514 4663312.577 7024625.714 10 0 59319 72000.00000 0 -24710447.855 4866188.558 3898598.394 10 0 59319 72900.00000 0 -24962630.837 5054616.914 696633.946 10 0 59319 73800.00000 0 -24814776.436 5172986.340 -2518903.949 10 0 59319 74700.00000 0 -24281538.799 5167807.697 -5685298.268 10 0 59319 75600.00000 0 -23390219.942 4990238.927 -8740718.687 10 0 59319 76500.00000 0 -22179603.704 4598420.920 -11625449.588 10 0 59319 77400.00000 0 -20698319.423 3959522.214 -14283079.738 10 0 59319 78300.00000 0 -19002804.523 3051402.619 -16661628.124 10 0 59319 79200.00000 0 -17154952.774 1863822.201 -18714581.629 10 0 59319 80100.00000 0 -15219548.907 399141.813 -20401822.228 10 0 59319 81000.00000 0 -13261599.476 -1327516.514 -21690423.975 10 0 59319 81900.00000 0 -11343674.212 -3288657.489 -22555303.177 10 0 59319 82800.00000 0 -9523371.428 -5445332.966 -22979708.502 10 0 59319 83700.00000 0 -7851015.156 -7748556.052 -22955541.558 10 0 59319 84600.00000 0 -6367681.196 -10141148.871 -22483502.285 10 0 59319 85500.00000 0 -5103634.628 -12559945.335 -21573057.390 10 0 59320 0.00000 0 -4077243.080 -14938255.450 -20242233.862 10 0 59320 900.00000 0 -3294409.416 -17208486.894 -18517243.050 10 0 59320 1800.00000 0 -2748544.414 -19304813.339 -16431944.946 10 0 59320 2700.00000 0 -2421078.339 -21165777.180 -14027164.218 10 0 59320 3600.00000 0 -2282485.196 -22736718.874 -11349873.570 10 0 59320 4500.00000 0 -2293774.147 -23971931.373 -8452261.709 10 0 59320 5400.00000 0 -2408381.741 -24836451.573 -5390705.450 10 0 59320 6300.00000 0 -2574382.860 -25307415.769 -2224666.862 10 0 59320 7200.00000 0 -2736925.371 -25374924.916 984462.342 10 0 59320 8100.00000 0 -2840784.824 -25042386.147 4174546.644 10 0 59320 9000.00000 0 -2832931.289 -24326318.837 7283900.059 10 0 59320 9900.00000 0 -2665000.674 -23255635.595 10252464.545 10 0 59320 10800.00000 0 -2295567.451 -21870429.975 13022951.937 10 0 59320 11700.00000 0 -1692124.504 -20220322.537 15541928.948 10 0 59320 12600.00000 0 -832688.246 -18362434.544 17760826.133 10 0 59320 13500.00000 0 293037.236 -16359073.143 19636853.450 10 0 59320 14400.00000 0 1682985.222 -14275223.088 21133806.876 10 0 59320 15300.00000 0 3322568.910 -12175947.471 22222752.395 10 0 59320 16200.00000 0 5185048.964 -10123803.198 22882575.788 10 0 59320 17100.00000 0 7232412.560 -8176376.147 23100388.740 10 0 59320 18000.00000 0 9416729.718 -6384036.207 22871783.838 10 0 59320 18900.00000 0 11681933.588 -4788003.527 22200933.371 10 0 59320 19800.00000 0 13965954.011 -3418805.112 21100529.035 10 0 59320 20700.00000 0 16203118.889 -2295185.426 19591562.138 10 0 59320 21600.00000 0 18326726.511 -1423516.561 17702946.400 10 0 59320 22500.00000 0 20271684.140 -797733.416 15470988.111 10 0 59320 23400.00000 0 21977104.376 -399797.972 12938711.323 10 0 59320 24300.00000 0 23388751.497 -200674.842 10155048.544 10 0 59320 25200.00000 0 24461235.068 -161778.713 7173910.411 10 0 59320 26100.00000 0 25159857.525 -236834.152 4053150.753 10 0 59320 27000.00000 0 25462036.156 -374070.138 853446.156 10 0 59320 27900.00000 0 25358237.147 -518656.633 -2362888.479 10 0 59320 28800.00000 0 24852379.650 -615279.414 -5533124.654 10 0 59320 29700.00000 0 23961690.370 -610742.460 -8595360.205 10 0 59320 30600.00000 0 22716012.675 -456485.294 -11489748.486 10 0 59320 31500.00000 0 21156598.032 -110905.712 -14159690.498 10 0 59320 32400.00000 0 19334430.128 458613.694 -16552964.412 10 0 59320 33300.00000 0 17308152.577 1274064.211 -18622768.090 10 0 59320 34200.00000 0 15141688.458 2345627.156 -20328652.158 10 0 59320 35100.00000 0 12901653.403 3670999.937 -21637323.782 10 0 59320 36000.00000 0 10654672.691 5235262.099 -22523304.342 10 0 59320 36900.00000 0 8464716.833 7011287.920 -22969427.600 10 0 59320 37800.00000 0 6390568.822 8960688.294 -22967168.706 10 0 59320 38700.00000 0 4483530.040 11035241.858 -22516798.195 10 0 59320 39600.00000 0 2785461.039 13178754.157 -21627359.012 10 0 59320 40500.00000 0 1327238.433 15329265.593 -20316468.422 10 0 59320 41400.00000 0 127690.780 17421514.270 -18609950.287 10 0 59320 42300.00000 0 -806944.399 19389549.273 -16541306.685 10 0 59320 43200.00000 0 -1483022.900 21169384.165 -14151040.974 10 0 59320 44100.00000 0 -1918958.853 22701579.302 -11485847.202 10 0 59320 45000.00000 0 -2144178.578 23933645.100 -8597683.262 10 0 59320 45900.00000 0 -2197610.785 24822166.633 -5542747.178 10 0 59320 46800.00000 0 -2125779.705 25334562.139 -2380377.399 10 0 59320 47700.00000 0 -1980583.856 25450403.809 828100.784 10 0 59320 48600.00000 0 -1816855.660 25162247.868 4020560.143 10 0 59320 49500.00000 0 -1689805.555 24475941.576 7135265.042 10 0 59320 50400.00000 0 -1652458.223 23410396.492 10112051.096 10 0 59320 51300.00000 0 -1753188.259 21996839.251 12893469.381 10 0 59320 52200.00000 0 -2033457.764 20277572.284 15425874.696 10 0 59320 53100.00000 0 -2525849.593 18304296.645 17660438.639 10 0 59320 54000.00000 0 -3252477.475 16136066.411 19554070.108 10 0 59320 54900.00000 0 -4223838.699 13836958.614 21070227.553 10 0 59320 55800.00000 0 -5438156.937 11473553.792 22179609.197 10 0 59320 56700.00000 0 -6881243.045 9112329.454 22860709.584 10 0 59320 57600.00000 0 -8526880.803 6817072.055 23100232.826 10 0 59320 58500.00000 0 -10337723.481 4646412.381 22893355.066 10 0 59320 59400.00000 0 -12266666.493 2651584.295 22243830.923 10 0 59320 60300.00000 0 -14258642.130 874498.086 21163940.937 10 0 59320 61200.00000 0 -16252764.862 -653792.571 19674279.486 10 0 59320 62100.00000 0 -18184740.973 -1914166.645 17803385.149 10 0 59320 63000.00000 0 -19989444.823 -2900009.611 15587218.154 10 0 59320 63900.00000 0 -21603556.076 -3617260.126 13068492.426 10 0 59320 64800.00000 0 -22968148.775 -4083926.184 10295872.590 10 0 59320 65700.00000 0 -24031123.887 -4329089.515 7323049.223 10 0 59320 66600.00000 0 -24749382.322 -4391438.551 4207708.654 10 0 59320 67500.00000 0 -25090645.305 -4317390.731 1010416.246 10 0 59320 68400.00000 0 -25034843.070 -4158882.951 -2206565.407 10 0 59320 69300.00000 0 -24575010.480 -3970923.855 -5380499.783 10 0 59320 70200.00000 0 -23717648.988 -3809012.724 -8449416.212 10 0 59320 71100.00000 0 -22482537.058 -3726536.234 -11353340.165 10 0 59320 72000.00000 0 -20901995.034 -3772255.917 -14035487.796 10 0 59320 72900.00000 0 -19019634.199 -3987995.740 -16443399.062 10 0 59320 73800.00000 0 -16888642.263 -4406630.857 -18529985.020 10 0 59320 74700.00000 0 -14569677.909 -5050465.526 -20254466.670 10 0 59320 75600.00000 0 -12128463.934 -5930071.316 -21583185.438 10 0 59320 76500.00000 0 -9633181.593 -7043636.565 -22490268.299 10 0 59320 77400.00000 0 -7151777.120 -8376855.637 -22958133.986 10 0 59320 78300.00000 0 -4749294.840 -9903363.048 -22977830.430 10 0 59320 79200.00000 0 -2485349.578 -11585693.821 -22549197.422 10 0 59320 80100.00000 0 -411844.648 -13376728.731 -21680852.314 10 0 59320 81000.00000 0 1428969.540 -15221562.369 -20390000.437 10 0 59320 81900.00000 0 3006016.333 -17059714.085 -18702075.529 10 0 59320 82800.00000 0 4300431.575 -18827587.496 -16650219.000 10 0 59320 83700.00000 0 5306079.634 -20461074.156 -14274609.965 10 0 59320 84600.00000 0 6029528.571 -21898191.446 -11621660.804 10 0 59320 85500.00000 0 6489489.093 -23081643.730 -8743095.598 99